User: anonymous   Login
Location: Austin, TX
(30.3000°N, 97.7500°W)
Time: 21:44:10
(UTC-05:00)
Language:

Cosmos 2082 Rocket - Orbit

View from above orbital plane
View from above orbital plane
View from above satellite
View from above satellite

Ground track
Ground track

The orbit data is extracted from the following two-line orbital elements,

1 20625U 90046B   15142.52538527 -.00000115  00000-0 -35104-4 0  9990
2 20625 070.9999 297.1607 0014300 186.4147 236.8279 14.14578821290831
Epoch (UTC): 22 May 2015 12:36:33
Eccentricity: 0.0014300
inclination: 70.9999°
perigee height: 833 km
apogee height: 854 km
right ascension of ascending node: 297.1607°
argument of perigee: 186.4147°
revolutions per day: 14.14578821
mean anomaly at epoch: 236.8279°
orbit number at epoch: 29083

The dashed part of the orbit path shows where the satellite is in the earth's shadow,  

DLR